Auburn, IN

11:19 PM EDT on August 25, 2019 (GMT -0400)
Auburn

Weather History for KGWB - May, 2019

Change the Weather History Date:

Sunday, May 19, 2019

  Actual Average (KFWA) Record (KFWA)
Temperature  
Mean Temperature 66 °F -  
Max Temperature 73 °F 73 °F 94 °F (1911)
Min Temperature 60 °F 51 °F 30 °F (2002)
Cooling Degree Days 2    
Growing Degree Days 16 (Base 50)    
Moisture  
Dew Point 61 °F    
Average Humidity 83    
Maximum Humidity 94    
Minimum Humidity 69    
Precipitation  
Precipitation 0.05 in - - ()
Sea Level Pressure  
Sea Level Pressure 29.76 in    
Wind  
Wind Speed 4 mph (SSW)    
Max Wind Speed 14 mph    
Max Gust Speed 26 mph    
Visibility 10 miles    
Events Rain    
Averages and records for this station are not official NWS values.
T = Trace of Precipitation, MM = Missing Value Source: NWS Daily Summary

Daily Weather History Graph

Daily Weather History Graph

Search for Another Location

Airport or City:

Astronomy

May. 19, 2019 Rise Set
Actual Time 6:18 AM EDT 8:55 PM EDT
Civil Twilight 5:46 AM EDT 9:27 PM EDT
Nautical Twilight 5:06 AM EDT 10:07 PM EDT
Astronomical Twilight 4:21 AM EDT 10:53 PM EDT
Moon 9:55 PM EDT (5/19) 7:03 AM EDT (5/19)
Length of Visible Light 15h 41m
Length of Day
14h 37m
Full, 99% of the Moon is Illuminated
May 19
Full
May 26
Last Quarter
Jun 3
New
Jun 10
First Quarter
Jun 17
Full

Hourly Weather History & Observations

Time (EDT) Temp. Dew Point Humidity Pressure Visibility Wind Dir Wind Speed Gust Speed Precip Events Conditions
12:15 AM 62.6 °F 60.8 °F 94% 29.82 in 10.0 mi Calm Calm - N/A   Clear
12:35 AM 60.8 °F 59.0 °F 94% 29.82 in 10.0 mi Calm Calm - N/A   Clear
12:55 AM 60.8 °F 59.0 °F 94% 29.82 in 10.0 mi Calm Calm - N/A   Scattered Clouds
1:15 AM 62.6 °F 59.0 °F 88% 29.82 in 10.0 mi Calm Calm - N/A   Scattered Clouds
1:35 AM 64.4 °F 60.8 °F 88% 29.81 in 10.0 mi Calm Calm - N/A   Scattered Clouds
1:55 AM 64.4 °F 59.0 °F 83% 29.80 in 10.0 mi Calm Calm - N/A   Clear
2:15 AM 66.2 °F 59.0 °F 78% 29.80 in 10.0 mi Calm Calm - N/A   Clear
2:35 AM 66.2 °F 59.0 °F 78% 29.80 in 10.0 mi Calm Calm - N/A   Clear
2:55 AM 64.4 °F 59.0 °F 83% 29.79 in 10.0 mi Calm Calm - N/A   Clear
3:15 AM 66.2 °F 59.0 °F 78% 29.79 in 10.0 mi Calm Calm - N/A   Clear
3:35 AM 68.0 °F 60.8 °F 78% 29.79 in 10.0 mi South 3.5 mph - N/A   Clear
3:55 AM 68.0 °F 60.8 °F 78% 29.79 in 10.0 mi South 3.5 mph - N/A   Clear
4:15 AM 68.0 °F 60.8 °F 78% 29.79 in 10.0 mi Calm Calm - N/A   Clear
4:35 AM 68.0 °F 60.8 °F 78% 29.78 in 10.0 mi Calm Calm - N/A   Clear
4:55 AM 68.0 °F 60.8 °F 78% 29.78 in 10.0 mi Calm Calm - N/A   Clear
5:15 AM 68.0 °F 60.8 °F 78% 29.78 in 10.0 mi South 3.5 mph - N/A   Clear
5:35 AM 68.0 °F 60.8 °F 78% 29.77 in 10.0 mi Calm Calm - N/A   Clear
5:55 AM 68.0 °F 60.8 °F 78% 29.77 in 10.0 mi Calm Calm - N/A   Clear
6:15 AM 68.0 °F 62.6 °F 83% 29.76 in 10.0 mi Calm Calm - N/A   Clear
6:35 AM 68.0 °F 62.6 °F 83% 29.76 in 10.0 mi Calm Calm - N/A   Clear
6:55 AM 68.0 °F 62.6 °F 83% 29.76 in 10.0 mi Calm Calm - N/A   Clear
7:15 AM 68.0 °F 62.6 °F 83% 29.76 in 10.0 mi South 4.6 mph - N/A   Clear
7:35 AM 69.8 °F 62.6 °F 78% 29.76 in 10.0 mi South 4.6 mph - N/A   Clear
7:55 AM 69.8 °F 62.6 °F 78% 29.76 in 10.0 mi South 6.9 mph - N/A   Scattered Clouds
8:15 AM 69.8 °F 62.6 °F 78% 29.76 in 10.0 mi South 4.6 mph - N/A Rain Light Rain
8:35 AM 69.8 °F 62.6 °F 78% 29.76 in 10.0 mi South 6.9 mph - N/A Rain Light Rain
8:55 AM 69.8 °F 62.6 °F 78% 29.76 in 10.0 mi South 4.6 mph - N/A   Light Drizzle
9:15 AM 69.8 °F 62.6 °F 78% 29.75 in 10.0 mi South 4.6 mph - N/A   Mostly Cloudy
9:35 AM 69.8 °F 64.4 °F 83% 29.75 in 10.0 mi South 4.6 mph - N/A   Overcast
9:55 AM 71.6 °F 64.4 °F 78% 29.75 in 10.0 mi SSW 4.6 mph - N/A   Mostly Cloudy
10:15 AM 71.6 °F 64.4 °F 78% 29.75 in 10.0 mi SSW 6.9 mph 18.4 mph N/A   Mostly Cloudy
10:35 AM 73.4 °F 64.4 °F 73% 29.75 in 10.0 mi SSW 13.8 mph 23.0 mph N/A   Scattered Clouds
10:55 AM 73.4 °F 62.6 °F 69% 29.75 in 10.0 mi SW 10.4 mph 16.1 mph N/A   Mostly Cloudy
11:15 AM 73.4 °F 62.6 °F 69% 29.75 in 10.0 mi SW 12.7 mph 20.7 mph N/A   Mostly Cloudy
11:35 AM 73.4 °F 62.6 °F 69% 29.75 in 10.0 mi SW 13.8 mph 26.5 mph N/A   Overcast
11:55 AM 73.4 °F 62.6 °F 69% 29.76 in 10.0 mi SW 11.5 mph 18.4 mph N/A   Mostly Cloudy
12:15 PM 68.0 °F 62.6 °F 83% 29.77 in 10.0 mi SW 9.2 mph 16.1 mph N/A   Overcast
12:35 PM 69.8 °F 62.6 °F 78% 29.76 in 10.0 mi SSW 10.4 mph 19.6 mph N/A   Mostly Cloudy
12:55 PM 68.0 °F 64.4 °F 88% 29.76 in 5.0 mi SW 9.2 mph 23.0 mph N/A Rain Light Rain
1:15 PM 68.0 °F 64.4 °F 88% 29.76 in 5.0 mi SW 8.1 mph - 0.01 in Rain Light Rain
1:35 PM 68.0 °F 64.4 °F 88% 29.74 in 10.0 mi SSW 6.9 mph - 0.01 in   Overcast
1:55 PM 68.0 °F 64.4 °F 88% 29.74 in 10.0 mi SSW 4.6 mph - 0.01 in Rain Rain
2:15 PM 68.0 °F 64.4 °F 88% 29.74 in 10.0 mi SW 5.8 mph - N/A   Mostly Cloudy
2:35 PM 68.0 °F 62.6 °F 83% 29.77 in 10.0 mi SW 9.2 mph 19.6 mph 0.01 in Rain Rain
2:55 PM 66.2 °F 62.6 °F 88% 29.76 in 10.0 mi SW 8.1 mph 16.1 mph 0.01 in Rain Light Rain
3:20 PM 64.4 °F 60.8 °F 88% 29.74 in 10.0 mi SSW 8.1 mph 19.6 mph N/A Rain Rain
3:35 PM 64.4 °F 60.8 °F 88% 29.76 in 10.0 mi SSW 6.9 mph 16.1 mph N/A Rain Light Rain
3:55 PM 64.4 °F 60.8 °F 88% 29.72 in 10.0 mi South 5.8 mph - 0.01 in Rain Light Rain
4:15 PM 62.6 °F 60.8 °F 94% 29.73 in 10.0 mi South 5.8 mph - 0.01 in Rain Light Rain
4:35 PM 64.4 °F 60.8 °F 88% 29.73 in 10.0 mi South 4.6 mph - 0.01 in   Scattered Clouds
4:55 PM 66.2 °F 62.6 °F 88% 29.72 in 10.0 mi South 11.5 mph 16.1 mph 0.01 in   Clear
5:15 PM 66.2 °F 60.8 °F 83% 29.72 in 10.0 mi SSW 9.2 mph 17.3 mph N/A   Mostly Cloudy
5:35 PM 68.0 °F 60.8 °F 78% 29.72 in 10.0 mi SSW 8.1 mph 17.3 mph N/A   Mostly Cloudy
5:55 PM 66.2 °F 60.8 °F 83% 29.72 in 10.0 mi South 8.1 mph 18.4 mph N/A   Scattered Clouds
6:15 PM 66.2 °F 60.8 °F 83% 29.71 in 10.0 mi South 8.1 mph 24.2 mph N/A   Scattered Clouds
6:35 PM 66.2 °F 60.8 °F 83% 29.70 in 10.0 mi South 9.2 mph 17.3 mph N/A   Scattered Clouds
6:55 PM 64.4 °F 60.8 °F 88% 29.69 in 10.0 mi South 10.4 mph 24.2 mph 0.01 in Rain Light Rain
7:15 PM 64.4 °F 59.0 °F 83% 29.70 in 10.0 mi South 9.2 mph 18.4 mph N/A   Scattered Clouds
7:35 PM 62.6 °F 57.2 °F 82% 29.71 in 10.0 mi SSW 9.2 mph 16.1 mph N/A   Clear
7:55 PM 64.4 °F 59.0 °F 83% 29.70 in 10.0 mi SSW 8.1 mph 16.1 mph N/A   Clear
8:15 PM 64.4 °F 59.0 °F 83% 29.71 in 10.0 mi SSW 8.1 mph 17.3 mph N/A   Clear
8:35 PM 64.4 °F 57.2 °F 77% 29.71 in 10.0 mi SSW 8.1 mph - N/A   Clear
8:55 PM 62.6 °F 59.0 °F 88% 29.73 in 10.0 mi SSW 5.8 mph - N/A   Clear
9:15 PM 62.6 °F 59.0 °F 88% 29.73 in 10.0 mi SSW 8.1 mph - N/A   Clear
9:35 PM 62.6 °F 59.0 °F 88% 29.73 in 10.0 mi SW 5.8 mph - N/A   Clear
9:55 PM 62.6 °F 59.0 °F 88% 29.74 in 10.0 mi SW 4.6 mph - N/A   Clear
10:15 PM 62.6 °F 59.0 °F 88% 29.75 in 10.0 mi SW 5.8 mph - N/A   Clear
10:35 PM 62.6 °F 59.0 °F 88% 29.76 in 10.0 mi SW 5.8 mph - N/A   Clear
10:55 PM 62.6 °F 59.0 °F 88% 29.76 in 10.0 mi SW 4.6 mph - N/A   Clear
11:15 PM 62.6 °F 59.0 °F 88% 29.77 in 10.0 mi SW 5.8 mph - N/A   Clear
11:35 PM 62.6 °F 59.0 °F 88% 29.78 in 10.0 mi SW 5.8 mph - N/A   Clear
11:55 PM 62.6 °F 60.8 °F 94% 29.78 in 10.0 mi SW 9.2 mph - N/A   Clear